Date String (YYYY-MM-DD hh:mm:ss) UTC,Instrument flags,Ambient pressure (hPa),Sample flow (lpm),Bypass flow (lpm),Sample temperature (°C),Ambient temperature (°C),ASC tube jacket temperature (°C),LED temperature (°C),Box temperature (°C),Sample RH (%),Span deviation,Mass concentration (μg/m³),Mass concentration (μg/m³),Mass concentration (μg/m³)
DateTimeUTC,F1_M11,P_M11,Q1_M11,Q2_M11,T1_M11,T2_M11,T3_M11,T4_M11,T5_M11,U1_M11,ZSPAN_M11,X0_M11,X2_M11,X1_M11
2023-05-07 12:00:00,,0827.7,5.00,0.00,27.8,26.0,00.0,36.2,29.2,10.6,0000.0,0007.15,0002.48,0001.41
2023-05-07 12:01:00,,0827.7,5.00,0.00,27.8,26.0,00.0,36.2,29.2,10.5,0000.0,0007.17,0002.45,0001.38
2023-05-07 12:02:00,,0827.8,5.00,0.00,27.8,26.0,00.0,36.2,29.2,10.4,0000.0,0007.66,0002.51,0001.38
2023-05-07 12:03:00,,0827.8,4.99,0.00,27.8,25.9,00.0,36.2,29.2,10.4,0000.0,0007.62,0002.53,0001.37
2023-05-07 12:04:00,,0827.8,4.99,0.00,27.8,25.9,00.0,36.2,29.2,10.3,0000.0,0007.30,0002.53,0001.35
2023-05-07 12:05:00,,0827.8,5.00,0.00,27.8,25.9,00.0,36.2,29.2,10.4,0000.0,0007.62,0002.50,0001.36
2023-05-07 12:06:00,,0827.8,5.01,0.00,27.8,25.9,00.0,36.2,29.1,10.4,0000.0,0007.56,0002.45,0001.35
2023-05-07 12:07:00,,0827.8,5.01,0.00,27.7,25.8,00.0,36.1,29.1,10.4,0000.0,0007.51,0002.48,0001.35
2023-05-07 12:08:00,,0827.8,5.01,0.00,27.7,25.8,00.0,36.1,29.0,10.4,0000.0,0007.39,0002.50,0001.36
2023-05-07 12:09:00,,0827.8,4.99,0.00,27.7,25.8,00.0,36.1,29.0,10.5,0000.0,0007.36,0002.52,0001.36
2023-05-07 12:10:00,,0827.8,4.99,0.00,27.7,25.8,00.0,36.1,29.1,10.5,0000.0,0007.03,0002.45,0001.36
2023-05-07 12:11:00,,0827.8,5.00,0.00,27.7,25.8,00.0,36.1,29.1,10.4,0000.0,0007.01,0002.47,0001.36
2023-05-07 12:12:00,,0827.8,5.00,0.00,27.7,25.8,00.0,36.1,29.1,10.6,0000.0,0007.28,0002.57,0001.37
2023-05-07 12:13:00,,0827.8,5.00,0.00,27.7,25.8,00.0,36.1,29.0,10.5,0000.0,0006.87,0002.59,0001.36
2023-05-07 12:14:00,,0827.8,4.99,0.00,27.7,25.8,00.0,36.1,29.0,10.5,0000.0,0006.04,0002.52,0001.36
2023-05-07 12:15:00,,0827.8,5.00,0.00,27.7,25.8,00.0,36.1,29.1,10.6,0000.0,0005.70,0002.50,0001.36
2023-05-07 12:16:00,,0827.8,5.01,0.00,27.7,25.8,00.0,36.1,29.1,10.6,0000.0,0004.94,0002.50,0001.36
2023-05-07 12:17:00,,0827.8,5.01,0.00,27.6,25.8,00.0,36.1,29.0,10.6,0000.0,0005.27,0002.63,0001.36
2023-05-07 12:18:00,,0827.8,5.00,0.00,27.6,25.8,00.0,36.1,29.0,10.6,0000.0,0005.22,0002.58,0001.36
2023-05-07 12:19:00,,0827.8,5.00,0.00,27.6,25.7,00.0,36.0,28.9,10.5,0000.0,0005.16,0002.55,0001.36
2023-05-07 12:20:00,,0827.8,5.00,0.00,27.6,25.7,00.0,36.0,29.0,10.5,0000.0,0005.08,0002.50,0001.36
2023-05-07 12:21:00,,0827.8,5.00,0.00,27.6,25.7,00.0,36.0,29.0,10.4,0000.0,0005.83,0002.55,0001.36
2023-05-07 12:22:00,,0827.8,5.00,0.00,27.6,25.7,00.0,36.0,29.0,10.4,0000.0,0005.55,0002.50,0001.36
2023-05-07 12:23:00,,0827.8,5.00,0.00,27.6,25.7,00.0,36.0,28.9,10.4,0000.0,0005.78,0002.44,0001.36
2023-05-07 12:24:00,,0827.8,5.00,0.00,27.6,25.7,00.0,36.0,28.9,10.5,0000.0,0005.83,0002.43,0001.37
2023-05-07 12:25:00,,0827.8,5.00,0.00,27.6,25.7,00.0,36.0,28.9,10.5,0000.0,0006.40,0002.48,0001.38
2023-05-07 12:26:00,,0827.7,5.01,0.00,27.6,25.7,00.0,36.0,28.9,10.4,0000.0,0006.76,0002.49,0001.38
2023-05-07 12:27:00,,0827.8,5.01,0.00,27.5,25.7,00.0,36.0,28.9,10.4,0000.0,0006.80,0002.54,0001.37
2023-05-07 12:28:00,,0827.8,5.01,0.00,27.5,25.7,00.0,36.0,28.9,10.4,0000.0,0006.52,0002.45,0001.36
2023-05-07 12:29:00,,0828.1,4.99,0.00,27.5,25.7,00.0,36.0,28.9,10.7,0000.0,0006.89,0002.49,0001.37
2023-05-07 12:30:00,,0827.8,5.00,0.00,27.5,25.7,00.0,35.9,29.0,10.5,0000.0,0007.20,0002.53,0001.38
2023-05-07 12:31:00,,0828.0,4.99,0.00,27.5,25.8,00.0,35.9,29.0,10.5,0000.0,0007.05,0002.51,0001.36
2023-05-07 12:32:00,,0828.1,4.99,0.00,27.5,25.8,00.0,35.9,28.9,10.4,0000.0,0006.57,0002.48,0001.35
2023-05-07 12:33:00,,0828.1,5.01,0.00,27.5,25.8,00.0,35.9,29.0,10.5,0000.0,0006.51,0002.49,0001.35
2023-05-07 12:34:00,,0828.1,5.01,0.00,27.5,25.8,00.0,35.9,28.9,10.5,0000.0,0006.06,0002.49,0001.35
2023-05-07 12:35:00,,0828.1,5.01,0.00,27.5,25.8,00.0,35.9,28.9,10.5,0000.0,0005.78,0002.43,0001.34
2023-05-07 12:36:00,,0828.0,4.99,0.00,27.5,25.8,00.0,35.9,29.0,10.5,0000.0,0005.93,0002.45,0001.34
2023-05-07 12:37:00,,0828.1,4.99,0.00,27.5,25.8,00.0,35.9,29.0,10.7,0000.0,0005.98,0002.45,0001.35
2023-05-07 12:38:00,,0828.1,5.00,0.00,27.5,25.8,00.0,35.9,28.9,10.6,0000.0,0005.93,0002.40,0001.34
2023-05-07 12:39:00,,0828.1,5.00,0.00,27.5,25.8,00.0,35.9,28.9,10.6,0000.0,0006.07,0002.43,0001.36
2023-05-07 12:40:00,,0828.2,5.01,0.00,27.5,25.8,00.0,35.9,28.9,10.8,0000.0,0006.70,0002.42,0001.35
2023-05-07 12:41:00,,0828.2,5.00,0.00,27.5,25.8,00.0,35.9,28.9,10.5,0000.0,0006.62,0002.40,0001.35
2023-05-07 12:42:00,,0828.2,4.99,0.00,27.5,25.8,00.0,35.9,28.9,10.5,0000.0,0006.83,0002.44,0001.34
2023-05-07 12:43:00,,0828.2,5.00,0.00,27.5,25.8,00.0,35.9,28.9,10.6,0000.0,0006.85,0002.49,0001.36
2023-05-07 12:44:00,,0828.2,5.00,0.00,27.5,25.8,00.0,35.9,28.9,10.5,0000.0,0006.79,0002.47,0001.36
2023-05-07 12:45:00,,0828.2,5.00,0.00,27.5,25.8,00.0,35.9,28.9,10.8,0000.0,0006.83,0002.46,0001.35
2023-05-07 12:46:00,,0828.2,5.00,0.00,27.5,25.8,00.0,35.9,29.0,10.9,0000.0,0007.78,0002.46,0001.35
2023-05-07 12:47:00,,0828.2,4.99,0.00,27.5,25.8,00.0,35.9,28.9,10.6,0000.0,0008.18,0002.41,0001.34
2023-05-07 12:48:00,,0828.2,5.01,0.00,27.5,25.8,00.0,35.9,28.9,10.5,0000.0,0008.05,0002.44,0001.33
2023-05-07 12:49:00,,0828.2,5.00,0.00,27.5,25.8,00.0,35.9,28.9,10.5,0000.0,0008.04,0002.42,0001.33
2023-05-07 12:50:00,,0828.2,4.99,0.00,27.5,25.8,00.0,35.9,28.9,10.5,0000.0,0008.19,0002.47,0001.32
2023-05-07 12:51:00,,0828.2,4.99,0.00,27.5,25.9,00.0,35.9,28.9,10.5,0000.0,0008.24,0002.45,0001.31
2023-05-07 12:52:00,,0828.2,5.00,0.00,27.5,25.9,00.0,35.9,29.0,10.5,0000.0,0008.18,0002.46,0001.31
2023-05-07 12:53:00,,0828.2,5.00,0.00,27.5,25.9,00.0,35.9,29.0,10.6,0000.0,0008.22,0002.46,0001.32
2023-05-07 12:54:00,,0828.1,5.00,0.00,27.5,25.9,00.0,35.9,29.0,10.7,0000.0,0008.22,0002.45,0001.32
2023-05-07 12:55:00,,0828.2,5.01,0.00,27.5,25.9,00.0,35.9,28.9,10.9,0000.0,0008.29,0002.50,0001.32
2023-05-07 12:56:00,,0828.2,5.01,0.00,27.5,25.9,00.0,35.9,28.9,10.9,0000.0,0008.41,0002.59,0001.32
2023-05-07 12:57:00,,0828.1,5.00,0.00,27.5,25.9,00.0,35.9,29.0,11.1,0000.0,0007.95,0002.63,0001.32
2023-05-07 12:58:00,,0828.1,5.00,0.00,27.5,25.9,00.0,35.9,29.0,11.3,0000.0,0007.10,0002.71,0001.33
2023-05-07 12:59:00,,0828.1,4.99,0.00,27.5,25.9,00.0,35.9,29.0,11.4,0000.0,0007.16,0002.73,0001.33
